Regional Weather Roundup
Issued by NWS Sioux Falls, SD

Home | Current Version | Previous Version | Text Only | Print | Product List | Glossary Off
Versions: 1 2 3 4 5 6 7 8 9 10 11 12 13 14 15 16 17 18 19 20 21 22 23 24 25 26 27 28 29 30 31 32 33 34 35 36 37 38 39 40 41 42 43 44 45 46 47 48 49 50

000
ASUS43 KFSD 272310
RWRFSD

WEATHER ROUNDUP FOR SE SOUTH DAKOTA/SW MINNESOTA/NW IOWA
NATIONAL WEATHER SERVICE SIOUX FALLS SD
600 PM CDT MON APR 27 2015

NOTE: "FAIR" INDICATES FEW OR NO CLOUDS BELOW 12,000 FEET WITH NO
SIGNIFICANT WEATHER AND OR OBSTRUCTIONS TO VISIBILITY.


SDZ038>040-050-052>070-280000-
SOUTHEAST SOUTH DAKOTA

CITY           SKY/WX    TMP DP  RH WIND       PRES   REMARKS
BROOKINGS      SUNNY     66  23  19 CALM      30.16F
CHAMBERLAIN    SUNNY     71  28  20 CALM      30.16S
HURON          SUNNY     71  20  14 NE10      30.15F
MADISON        FAIR      66  21  18 SE10      30.16F
MITCHELL       SUNNY     70  23  17 NE5       30.16F
SIOUX FALLS    PTSUNNY   69  25  19 CALM      30.15F
WINNER         MOCLDY    72  30  21 N13       30.17F
YANKTON        MOSUNNY   70  28  21 N7        30.14S
$$

MNZ071-072-080-081-089-090-097-098-280000-
SOUTHWEST MINNESOTA

CITY           SKY/WX    TMP DP  RH WIND       PRES   REMARKS
FAIRMONT       SUNNY     68  25  19 N9        30.14F
JACKSON        SUNNY     68  18  14 NE12      30.15F
LUVERNE        SUNNY     70  19  14 N5        30.16S
MARSHALL       SUNNY     68  21  17 CALM      30.15F
MONTEVIDEO     SUNNY     72  23  16 N6        30.17S
REDWOOD FALLS  SUNNY     70  20  15 N7        30.14F
TRACY          SUNNY     69  22  17 NE5       30.16S
WORTHINGTON    SUNNY     66  23  19 N7        30.16F
$$

IAZ001>003-012>014-020>022-031-032-NEZ013-014-SDZ071-280000-
NORTHWEST IOWA

CITY           SKY/WX    TMP DP  RH WIND       PRES   REMARKS
CHEROKEE       SUNNY     66  31  27 N7        30.14S
DENISON        SUNNY     66  28  24 NE8G16    30.11S
ESTHERVILLE    SUNNY     66  30  26 NE12      30.15S
LE MARS        SUNNY     70  23  17 MISG      30.14F
ORANGE CITY    SUNNY     68  27  21 E7        30.14F
SHELDON        SUNNY     68  21  17 N6G12     30.13F
SIOUX CITY     MOSUNNY   71  22  15 NE9       30.13F
SPENCER        SUNNY     69  29  22 E10G17    30.15S
STORM LAKE     SUNNY     66  28  24 NE12      30.15S
$$

ABBREVIATIONS USED IN REMARKS
   TC - TEMPERATURE IN CELSIUS
  WCI - WIND CHILL INDEX
   HX - HEAT INDEX
  VSB - VISIBILITY




USA.gov is the U.S. government's official web portal to all federal, state and local government web resources and services.